Lapse_Rate
7.0 6.5 6.5 6.5 6.5 6.5 6.5 6.5 6.5 6.5 6.5 6.5 6.5 6.5 6.5 6.8 7.0 7.0 7.3 7.5 7.7 7.9 8.5 8.9 9.1 9.1 9.0 9.2 9.1 8.3 6.6 6.8 8.0 7.6 5.4 5.0 5.6 9.2 8.6 7.6 7.7 7.8 7.4 7.2
6.5 6.5 6.5 6.5 6.5 6.5 6.5 6.5 6.5 6.5 6.5 6.5 6.5 6.5 6.5 6.5 6.7 7.1 7.1 7.4 7.6 7.9 8.2 8.6 8.8 8.9 8.7 8.5 8.9 8.6 7.1 6.0 7.3 7.3 5.7 5.8 4.4 5.1 7.7 9.0 7.3 7.9 8.2 7.8
6.5 6.5 6.5 6.5 6.5 6.5 6.5 6.5 6.5 6.5 6.5 6.5 6.5 6.5 6.5 6.5 6.8 7.2 7.5 7.6 7.8 7.8 7.9 8.3 8.5 8.6 8.4 8.2 7.6 8.2 6.4 6.3 6.1 6.7 5.6 5.9 5.1 7.1 8.0 8.3 8.5 9.2 8.0 5.8
6.5 6.6 6.5 6.5 6.5 6.5 6.5 6.5 6.5 6.5 6.5 6.5 6.5 6.5 6.5 6.5 6.5 6.5 7.0 7.3 7.6 7.9 8.2 8.4 8.5 8.4 8.3 8.5 7.8 7.0 6.0 5.2 5.7 4.9 5.2 5.1 5.5 6.2 7.8 8.8 8.5 7.8 6.0 3.6
6.5 6.5 6.5 6.5 6.5 6.5 6.5 6.5 6.5 6.5 6.5 6.5 6.5 6.5 6.5 6.5 6.5 6.5 6.6 7.2 7.7 7.9 8.1 8.2 8.4 8.4 8.5 8.6 7.5 6.6 6.0 5.2 5.2 4.6 4.9 4.3 5.0 6.1 6.5 7.3 6.4 6.8 3.6 1.5
6.5 7.0 6.5 6.5 6.5 6.5 6.5 6.5 6.5 6.5 6.5 6.5 6.5 6.5 6.5 6.5 6.5 6.5 6.7 7.3 7.7 7.9 8.2 8.4 8.6 8.7 8.4 8.1 7.3 6.8 6.0 4.9 4.5 3.9 3.8 3.5 4.2 5.0 5.6 6.1 4.6 2.6 1.5 0.1
6.5 6.5 6.5 6.7 6.5 6.5 6.5 6.5 6.5 6.5 6.5 6.5 6.5 6.5 6.5 6.5 6.5 6.5 6.5 7.2 7.5 8.0 8.2 8.2 8.3 8.4 8.6 8.6 8.1 7.1 6.0 5.4 4.4 3.4 2.7 2.9 3.5 3.7 4.2 4.3 2.8 1.7 0.9 -0.6
6.5 6.5 6.5 6.5 6.5 6.5 6.5 6.5 6.5 6.5 6.5 6.5 6.5 6.5 6.5 6.5 6.7 7.0 7.2 7.3 7.7 7.9 8.2 8.2 8.4 8.4 8.4 8.4 8.0 7.7 6.7 5.6 4.4 3.3 2.2 2.4 2.6 2.6 2.5 2.0 1.5 0.2 -1.0 -2.0
6.5 6.5 6.5 6.5 6.5 6.5 6.5 6.5 6.5 6.5 6.5 6.5 6.5 6.5 6.5 6.5 6.5 6.7 6.8 7.3 7.4 7.7 8.0 8.1 8.3 8.3 8.3 8.1 7.7 7.6 6.6 5.2 4.0 2.7 2.3 1.8 1.6 1.5 0.7 -0.6 -1.0 -1.3 -1.3 -2.6
6.5 6.5 6.5 6.5 6.6 6.6 6.5 6.5 6.5 6.5 6.5 6.5 6.5 6.5 6.5 6.5 6.5 6.5 6.5 6.9 7.4 7.8 7.9 8.1 8.2 8.2 8.2 7.8 7.4 7.5 6.4 5.2 3.9 2.9 2.4 1.5 0.8 0.4 -0.6 -0.8 -1.4 -2.3 -2.7 -3.1
6.5 6.5 6.5 6.5 6.5 6.5 6.5 6.5 6.5 6.5 6.5 6.5 6.5 6.5 6.5 6.5 6.5 6.5 6.5 7.1 7.3 7.6 7.8 7.9 8.0 7.9 6.8 7.0 6.8 7.0 6.0 5.0 4.3 3.5 2.9 2.0 0.9 -0.2 -0.9 -0.8 -1.5 -2.1 -2.1 -2.4
6.5 6.5 6.5 6.5 6.5 6.5 6.5 6.5 6.5 6.5 6.5 6.5 6.5 6.5 6.5 6.5 6.5 6.7 6.8 7.2 7.6 7.8 7.8 7.9 8.0 7.6 7.0 6.9 7.1 6.7 6.0 5.0 4.5 4.1 3.3 2.1 1.3 0.9 0.5 -0.1 -0.7 -0.8 -1.8 -2.2
6.5 6.5 6.5 6.5 6.5 6.5 6.5 6.5 6.5 6.5 6.5 6.5 6.5 6.5 6.5 6.5 6.5 6.9 6.8 7.2 7.5 7.7 7.8 7.8 7.7 7.2 6.9 7.3 7.0 6.7 5.9 5.8 5.1 4.2 3.9 3.4 2.6 2.0 1.2 0.7 0.2 -0.3 -1.1 -2.0
6.8 6.5 6.5 6.5 6.5 6.5 6.5 6.5 6.5 6.5 6.5 6.5 6.5 6.5 6.5 6.5 6.5 6.6 6.9 7.3 7.4 7.6 7.6 7.7 7.2 7.3 7.3 7.1 6.7 6.4 6.3 5.9 5.4 4.5 4.1 4.0 3.3 2.6 2.3 2.0 1.2 0.6 -0.2 -0.8
6.5 6.5 6.5 6.5 6.5 6.5 6.5 6.5 6.5 6.5 6.5 6.5 6.5 6.5 6.5 6.5 6.5 6.6 7.0 7.2 7.3 7.4 7.5 7.4 7.2 7.4 6.7 6.7 6.8 6.8 6.5 6.0 5.7 4.8 4.4 4.1 3.3 2.4 2.0 1.5 1.1 1.0 0.6 0.2
6.5 6.5 6.5 6.5 6.5 6.5 6.5 6.5 6.5 6.5 6.5 6.5 6.5 6.5 6.5 6.7 6.5 6.8 7.0 7.1 7.1 7.3 7.1 6.0 6.0 6.6 6.2 6.5 6.3 6.1 5.9 5.1 4.5 4.0 4.0 3.7 3.0 2.1 1.4 1.2 0.9 0.8 0.9 1.7
6.5 6.5 6.5 6.5 6.5 6.5 6.5 6.5 6.5 6.5 6.5 6.5 6.5 6.5 6.5 6.5 6.5 6.7 7.0 7.0 7.2 7.1 6.2 5.8 5.7 5.6 6.1 6.4 6.1 5.2 4.8 4.0 3.2 3.1 3.2 2.9 2.0 1.1 1.1 1.6 1.0 0.2 0.1 -0.1
6.5 6.5 6.5 6.5 6.5 6.5 6.5 6.5 6.5 6.5 6.5 6.5 6.5 6.5 6.5 6.6 6.5 5.6 5.0 7.1 6.2 5.4 5.0 4.9 5.6 5.4 5.2 4.9 4.9 5.0 4.3 3.5 3.4 2.9 2.1 1.8 1.5 1.3 1.3 1.5 1.0 0.5 0.0 -0.1
6.5 6.5 6.5 6.5 6.5 6.5 6.5 6.5 6.5 6.5 6.5 6.5 6.5 6.5 6.6 5.9 5.9 6.3 4.1 4.0 5.1 4.0 4.0 3.3 1.7 1.3 3.5 2.8 3.5 3.2 2.7 2.6 2.1 1.6 1.2 1.1 1.2 1.2 1.2 0.9 0.8 0.5 0.3 0.2
6.5 6.5 6.5 6.5 6.5 6.5 6.5 6.5 6.8 6.5 6.5 6.5 6.4 6.5 6.5 6.9 6.5 6.5 1.9 2.3 1.7 1.2 0.4 0.2 0.4 0.9 1.4 1.3 2.9 2.9 2.3 2.3 1.6 1.5 1.2 1.1 1.3 1.2 0.9 0.6 0.8 1.1 1.1 0.9
6.5 6.5 6.5 6.5 6.5 6.5 6.5 6.6 7.0 6.5 6.5 6.3 6.6 6.3 6.6 6.5 5.4 2.4 0.7 1.1 0.7 -0.7 -1.8 -1.1 -0.7 0.1 -0.2 -0.1 1.3 1.6 1.6 1.3 1.2 1.2 1.5 1.5 1.6 1.3 1.2 1.0 1.1 1.2 1.2 0.9
6.5 6.5 6.5 6.5 6.5 6.5 6.6 6.7 6.5 6.2 4.3 4.4 6.5 4.6 5.0 4.9 -0.8 -0.9 -0.8 -0.8 -0.6 -1.7 -1.8 -0.9 -0.2 0.3 0.3 0.5 1.6 1.8 2.1 1.1 1.1 1.2 1.1 0.4 0.3 1.3 0.7 -0.2 -0.1 -0.0 0.1 -0.1
6.5 6.5 6.5 6.5 6.5 6.3 6.0 6.0 3.3 2.0 3.9 3.3 4.6 2.6 3.4 3.2 1.1 0.4 0.8 0.2 -0.1 -0.1 -0.1 0.0 0.9 0.7 0.5 0.1 0.9 1.1 1.0 -0.2 -0.9 -1.2 -2.0 -1.3 -0.8 -0.2 -0.1 0.3 0.3 0.7 0.8 1.5
6.5 6.7 6.5 6.5 6.5 6.5 5.8 2.9 2.7 1.0 2.4 3.8 4.3 2.7 3.4 3.7 3.5 2.5 3.1 2.4 1.6 1.0 0.3 -0.5 -0.5 -0.4 -0.6 -0.6 -0.1 0.9 0.1 -0.8 -2.6 -2.1 -1.9 -1.9 -1.6 -0.9 -1.0 0.1 0.2 0.9 0.9 1.1
6.6 6.6 6.5 6.5 6.5 6.0 4.7 3.1 2.5 1.2 -0.3 1.8 3.6 3.4 2.3 3.5 3.2 2.9 2.4 1.5 1.2 0.3 -0.4 -1.5 -2.1 -1.7 -1.2 -1.2 -1.2 -1.4 -1.6 -2.6 -2.1 -1.7 -1.3 -0.7 -0.4 -1.2 -0.1 0.3 0.7 0.6 1.0 1.6
6.5 6.5 6.5 6.5 5.7 6.0 6.2 3.7 2.5 2.7 0.8 0.7 1.5 2.0 2.6 2.4 2.0 1.7 0.8 0.3 -0.1 -1.1 -1.9 -2.6 -2.6 -2.2 -2.0 -2.3 -2.6 -3.0 -3.5 -3.8 -2.5 -1.3 -1.0 -0.3 0.1 0.1 0.1 0.6 0.1 0.1 0.5 0.3
Wind_Speed
3 5 9 3 2 5 8 10 16 17 7 10 12 21 20 15 14 12 11 9 12 14 14 14 14 15 15 16 14 13 13 13 10 7 7 7 10 6 6 5 5 7 5 6
4 8 4 2 3 8 11 15 17 6 5 16 16 21 15 14 12 10 6 9 12 14 14 14 14 14 14 14 14 12 12 12 10 6 6 5 7 9 9 2 4 6 5 6
10 3 3 3 7 10 12 12 12 13 19 11 11 12 5 1 4 6 8 7 11 12 14 14 14 14 14 13 13 13 12 12 10 8 5 6 8 9 8 7 5 4 3 4
9 4 4 7 9 2 6 3 9 15 11 5 5 6 6 6 7 8 7 9 12 12 12 13 14 13 15 14 13 12 11 12 9 9 4 7 7 8 7 5 4 4 4 5
1 3 5 3 4 2 7 13 14 9 3 9 6 3 3 4 8 8 4 11 12 12 12 13 12 13 15 13 12 12 11 10 9 7 5 4 7 7 7 4 4 3 3 5
6 0 2 2 5 6 11 10 4 1 2 3 6 2 6 3 1 1 6 12 13 13 13 12 12 12 13 13 12 12 11 10 9 7 6 6 7 8 6 5 3 3 4 5
3 4 3 1 4 3 7 8 4 3 2 3 6 6 8 4 2 3 9 12 12 11 12 12 13 13 14 14 13 11 11 10 9 7 7 7 6 6 6 5 3 4 3 3
3 4 4 1 2 1 3 4 2 7 6 11 8 6 0 3 2 5 5 9 10 11 11 12 12 12 13 14 13 13 11 9 8 8 8 6 6 3 3 5 4 3 3 4
3 2 4 4 2 0 2 2 2 3 2 4 4 5 5 3 4 9 8 11 10 10 10 11 11 11 12 13 13 12 12 10 9 9 7 7 7 6 5 6 6 4 5 5
2 4 3 4 2 1 3 6 2 3 5 7 5 6 7 2 9 13 10 10 10 11 10 10 11 12 12 12 11 11 10 9 9 8 7 6 7 7 6 7 8 7 6 7
4 1 3 3 5 4 3 3 2 1 2 3 7 5 3 2 7 12 11 10 10 11 10 10 11 11 11 10 9 9 8 9 9 8 8 8 8 9 8 8 7 7 8 8
3 2 5 1 4 0 1 3 4 3 4 4 3 8 6 3 5 8 10 10 9 9 9 9 10 10 10 10 9 10 9 8 8 8 9 9 9 9 9 9 9 9 10 11
3 3 4 3 2 2 4 5 3 3 1 7 3 5 5 5 8 6 8 8 8 8 9 9 9 8 9 9 9 9 9 8 8 8 9 9 9 10 10 10 10 11 12 13
3 3 5 5 2 1 4 8 10 5 4 3 9 15 6 4 7 6 6 6 6 5 5 6 6 7 8 7 7 7 8 8 9 9 9 9 10 10 10 11 11 12 13 14
2 4 2 8 7 2 7 5 13 14 5 6 1 5 15 11 6 5 5 4 4 4 3 3 5 5 6 6 6 7 8 9 9 10 10 10 10 10 11 12 12 13 14 13
1 2 3 5 2 3 6 10 11 14 11 14 14 17 1 1 1 4 4 3 3 2 2 1 2 4 5 5 5 7 7 8 8 9 10 9 10 11 12 12 12 13 13 13
3 3 2 4 1 6 7 7 13 7 8 6 6 1 3 2 5 4 4 4 4 3 2 1 1 2 3 5 6 7 7 7 8 9 9 9 9 11 10 10 10 11 11 11
4 2 2 5 3 3 1 3 3 7 6 17 5 3 4 1 2 3 4 4 4 4 4 2 2 4 5 6 6 7 8 9 9 9 9 9 9 9 9 8 9 8 8 10
2 2 2 3 4 7 2 5 7 6 5 18 13 6 5 3 2 4 7 6 5 5 2 2 1 1 3 3 4 6 6 7 7 7 7 7 7 8 7 7 8 7 7 8
3 1 3 1 4 3 1 4 5 3 4 7 13 11 9 8 3 2 11 10 7 6 5 5 3 2 2 2 4 5 5 5 6 5 5 5 6 6 6 6 7 6 7 8
4 4 8 8 5 8 2 8 8 1 4 5 12 11 13 8 0 4 12 9 8 7 7 6 5 4 4 3 2 5 4 4 4 4 4 5 5 5 5 6 5 5 6 7
7 8 5 5 5 7 6 6 5 2 2 5 9 10 13 4 5 6 10 10 11 10 10 9 7 6 5 5 5 5 4 5 4 4 4 4 3 3 4 4 4 3 4 4
4 5 3 8 5 1 10 2 2 2 2 5 9 8 11 7 8 13 11 12 12 12 10 10 8 8 7 6 5 6 5 5 4 4 4 4 3 3 3 3 3 3 2 2
6 6 4 2 3 11 12 10 9 5 4 4 9 13 14 11 10 13 12 12 12 11 10 9 8 8 8 7 7 5 6 5 3 3 3 3 2 3 2 2 2 2 2 2
1 8 5 7 14 11 13 12 12 12 7 6 8 12 16 13 13 13 11 12 11 11 10 9 9 8 8 8 7 5 5 6 5 4 3 4 3 3 3 3 3 3 2 3
7 8 6 8 7 3 3 1 5 11 13 13 11 11 13 14 13 13 11 10 11 12 11 10 10 8 8 8 7 6 6 7 6 6 5 5 4 4 4 4 4 10 9 9
Wind_Direction
168 253 235 285 244 298 288 280 286 297 8 311 276 284 282 281 266 249 259 295 314 322 324 320 321 320 317 309 307 314 312 309 306 313 327 323 323 253 218 218 221 231 246 229
227 245 62 98 251 265 275 283 295 317 189 323 296 288 286 276 252 247 276 299 320 320 321 320 321 319 317 312 311 315 314 308 306 311 321 303 305 297 304 255 242 240 228 264
253 359 140 242 267 277 280 277 303 298 319 278 306 272 200 250 190 202 238 327 323 319 317 318 320 322 318 314 317 317 317 313 308 316 314 311 306 254 248 233 221 220 49 316
261 91 235 259 276 265 290 37 306 307 327 307 19 296 231 172 213 214 242 335 325 318 318 317 320 322 317 316 318 320 321 316 317 317 325 328 309 299 314 328 9 38 28 358
33 227 241 272 266 168 261 325 301 314 271 320 150 254 222 171 238 227 268 331 326 324 315 318 320 320 316 320 322 326 324 321 319 318 354 345 318 307 307 289 286 36 1 9
262 68 244 264 290 251 297 301 301 166 311 264 162 245 276 167 354 264 315 329 327 316 316 319 323 327 321 323 328 331 329 325 328 330 9 7 324 314 310 312 346 21 358 3
177 208 139 311 289 198 328 297 313 278 234 307 166 254 292 106 108 308 313 317 311 308 317 323 328 329 328 330 335 333 332 331 335 343 19 7 330 323 318 338 12 14 11 6
264 237 181 52 57 327 12 304 33 299 313 308 195 245 354 106 158 285 279 297 298 315 317 323 327 329 329 331 334 335 335 336 344 4 22 10 356 354 345 11 34 46 49 40
260 229 119 82 79 236 86 241 50 273 117 275 234 243 134 166 228 329 324 310 310 313 313 322 328 335 335 335 336 338 341 345 0 15 20 22 22 27 26 35 40 39 58 66
64 282 168 123 131 117 280 140 214 148 310 302 304 296 275 227 328 317 321 311 311 310 320 331 337 343 343 336 336 345 351 355 5 19 25 39 41 44 50 51 62 65 60 63
162 246 132 155 193 159 156 216 195 295 232 298 311 312 95 179 318 305 307 308 306 315 331 341 351 342 332 332 338 353 2 7 19 23 33 46 50 50 50 56 54 54 65 69
154 298 261 228 106 20 293 277 228 237 158 231 281 275 125 184 298 290 300 303 308 323 342 354 344 341 338 341 348 0 8 17 25 33 39 45 51 53 56 55 53 55 60 60
167 194 293 186 140 154 228 193 223 98 48 229 256 288 160 241 282 298 289 303 324 331 353 351 349 347 342 347 360 7 13 15 32 41 47 52 57 60 60 59 61 62 64 62
169 271 255 268 5 16 215 196 199 214 220 180 237 288 274 343 306 316 302 320 332 339 347 347 348 351 356 4 9 20 28 27 41 47 50 52 56 59 62 64 65 67 69 69
286 270 294 273 276 228 257 221 196 207 245 233 10 264 297 316 302 319 314 316 329 347 346 352 351 1 4 18 22 37 36 40 45 54 53 53 58 59 63 64 63 67 66 67
148 287 332 275 102 211 271 233 210 225 250 260 276 285 309 54 295 269 273 262 243 219 228 261 353 7 14 23 43 52 49 48 48 58 58 56 60 61 61 63 66 71 69 67
203 275 297 275 250 297 267 217 182 187 205 200 206 205 163 241 247 264 235 231 242 229 221 164 83 31 45 35 61 62 58 60 58 63 67 65 67 67 67 74 73 71 76 76
183 215 272 290 307 259 9 55 168 218 223 213 263 226 186 203 150 210 196 211 210 215 205 197 75 39 33 51 56 68 67 66 60 61 67 67 68 69 66 64 68 66 68 71
233 241 263 284 288 301 200 188 172 185 284 204 202 173 183 170 245 237 192 191 193 191 180 173 180 224 58 63 85 87 81 84 78 65 64 65 72 81 82 80 80 74 78 75
162 138 260 228 270 268 303 155 181 178 284 166 172 170 163 173 206 198 160 172 177 179 189 192 186 174 122 59 83 94 85 85 79 77 72 68 72 81 82 72 70 71 75 81
178 195 221 220 270 280 136 148 167 223 254 155 179 168 161 192 302 133 141 162 173 177 185 189 188 174 142 129 109 111 109 93 91 92 93 92 92 85 86 83 81 88 94 98
186 167 193 185 228 278 140 125 197 203 132 155 172 175 185 167 123 146 152 156 164 173 179 184 180 177 167 160 158 146 148 130 131 121 106 93 70 89 95 94 100 94 107 99
241 226 197 214 226 136 199 302 292 329 166 182 177 179 184 172 185 170 174 175 181 182 182 184 183 171 173 176 188 177 162 163 155 145 137 140 126 122 133 141 142 135 129 128
222 199 243 323 231 244 230 245 239 214 242 182 192 181 182 185 181 182 172 177 182 187 187 180 181 183 182 184 194 208 162 164 141 167 175 163 174 161 179 184 191 178 178 176
7 162 223 257 277 272 247 225 236 215 210 236 202 185 188 181 183 182 180 181 182 182 185 185 191 193 193 179 193 191 168 156 176 179 183 203 210 210 203 239 227 232 245 233
181 200 205 246 232 240 291 189 228 209 212 207 188 188 197 189 181 178 184 185 184 184 181 187 195 198 194 185 191 181 171 170 180 193 199 205 204 200 215 216 226 230 235 218